This demonstration page uses our WeatherBlox Daily Observations layout. Learn more.

40.92945, -100.16068

Hourly Observations for October 27, 2019

Temp ( °F °C ) Dew Point ( °F °C ) Humidity (%) Winds ( mph kmh ) Pressure ( in mb ) Visibility ( mi km ) Precip ( " mm )
12:15 am 00:15 Clear 38 3.6 31 -0.3 76 76 N 16 26 29.94 1014 10 16.0934 0 0
12:35 am 00:35 Clear 38 3.2 31 -0.6 76 76 N 12 19 29.94 1014 10 16.0934 0 0
12:55 am 00:55 Clear 37 2.9 31 -0.7 77 77 N 10 17 29.94 1014 10 16.0934 0 0
1:15 am 01:15 Mostly Cloudy 37 3 31 -0.8 76 76 N 13 20 29.97 1015 10 16.0934 0 0
1:35 am 01:35 Cloudy 38 3.2 31 -0.8 75 75 N 16 26 29.97 1015 10 16.0934 0 0
1:55 am 01:55 Cloudy 39 3.7 31 -0.5 74 74 N 23 37 29.97 1015 10 16.0934 0 0
2:15 am 02:15 Cloudy 38 3.6 31 -0.5 75 75 N 23 37 30 1016 10 16.0934 0 0
2:35 am 02:35 Cloudy 37 3 31 -0.8 76 76 N 20 31 30.03 1017 10 16.0934 0 0
2:55 am 02:55 Cloudy 37 3 30 -1 75 75 N 23 37 30.03 1017 10 16.0934 0 0
3:15 am 03:15 Cloudy 37 2.9 31 -0.8 77 77 N 26 43 30.03 1017 10 16.0934 0 0
3:35 am 03:35 Cloudy 37 2.7 30 -1 77 77 N 21 33 30.03 1017 10 16.0934 0 0
3:55 am 03:55 Cloudy 37 2.6 31 -0.8 79 79 N 20 31 30.06 1018 10 16.0934 0 0
4:15 am 04:15 Cloudy 37 2.6 30 -1 77 77 N 23 37 30.06 1018 10 16.0934 0 0
4:35 am 04:35 Cloudy 37 2.5 30 -1 78 78 N 22 35 30.06 1018 10 16.0934 0 0
4:55 am 04:55 Cloudy 37 2.5 30 -1.1 77 77 N 18 30 30.06 1018 10 16.0934 0 0
5:15 am 05:15 Cloudy 36 2.3 29 -1.5 76 76 N 17 28 30.06 1018 10 16.0934 0 0
5:35 am 05:35 Cloudy 36 2.2 29 -1.8 75 75 N 20 31 30.09 1019 10 16.0934 0 0
5:55 am 05:55 Cloudy 36 2 28 -2.3 73 73 N 23 37 30.12 1020 10 16.0934 0 0
6:15 am 06:15 Cloudy 35 1.5 27 -2.8 73 73 N 20 31 30.12 1020 10 16.0934 0 0
6:35 am 06:35 Cloudy 34 1.2 27 -3 74 74 N 18 30 30.12 1020 10 16.0934 0 0
6:55 am 06:55 Cloudy 34 1 26 -3.5 72 72 N 20 31 30.12 1020 10 16.0934 0 0
7:15 am 07:15 Cloudy 34 1 26 -3.6 72 72 N 20 31 30.12 1020 10 16.0934 0 0
7:35 am 07:35 Cloudy 33 0.8 26 -3.5 73 73 N 20 31 30.15 1021 10 16.0934 0 0
7:55 am 07:55 Cloudy 33 0.5 24 -4.3 71 71 N 22 35 30.15 1021 10 16.0934 0 0
8:15 am 08:15 Cloudy 32 0.2 25 -4.1 73 73 N 17 28 30.15 1021 10 16.0934 0 0
8:35 am 08:35 Cloudy 32 0.1 25 -3.8 75 75 N 17 28 30.18 1022 10 16.0934 0 0
8:55 am 08:55 Cloudy 33 0.3 27 -2.6 81 81 NNW 18 30 30.18 1022 10 16.0934 0 0
9:15 am 09:15 Cloudy 33 0.3 25 -3.9 74 74 N 18 30 30.21 1023 10 16.0934 0 0
9:35 am 09:35 Cloudy 32 0 24 -4.7 71 71 N 20 31 30.21 1023 10 16.0934 0 0
9:55 am 09:55 Cloudy 32 0.2 23 -4.9 69 69 N 21 33 30.21 1023 10 16.0934 0 0
10:15 am 10:15 Cloudy 34 1 24 -4.2 69 69 N 20 31 30.21 1023 10 16.0934 0 0
10:35 am 10:35 Cloudy 32 0.2 25 -3.8 75 75 NNW 18 30 30.21 1023 10 16.0934 0 0
10:55 am 10:55 Cloudy 33 0.4 25 -4 73 73 N 15 24 30.21 1023 10 16.0934 0 0
11:15 am 11:15 Cloudy 34 1.1 24 -4.6 66 66 N 20 31 30.21 1023 10 16.0934 0 0
11:35 am 11:35 Cloudy 35 1.6 24 -4.6 64 64 NNW 23 37 30.18 1022 10 16.0934 0 0
11:55 am 11:55 Cloudy 35 1.5 23 -5.1 62 62 N 18 30 30.24 1024 10 16.0934 0 0
12:15 pm 12:15 Cloudy 35 1.5 23 -5.2 61 61 N 24 39 30.24 1024 10 16.0934 0 0
12:35 pm 12:35 Cloudy 34 1.2 22 -5.6 61 61 N 20 31 30.24 1024 10 16.0934 0 0
12:55 pm 12:55 Cloudy 35 1.6 22 -5.8 58 58 N 20 31 30.24 1024 10 16.0934 0 0
1:15 pm 13:15 Cloudy 35 1.8 21 -5.9 57 57 N 18 30 30.18 1022 10 16.0934 0 0
1:35 pm 13:35 Cloudy 36 2.2 21 -6.1 55 55 N 20 31 30.18 1022 10 16.0934 0 0
1:55 pm 13:55 Cloudy 37 2.5 20 -6.4 52 52 N 21 33 30.18 1022 10 16.0934 0 0
2:15 pm 14:15 Cloudy 37 2.8 20 -6.4 51 51 N 18 30 30.18 1022 10 16.0934 0 0
2:35 pm 14:35 Cloudy 37 2.7 20 -6.5 51 51 N 21 33 30.18 1022 10 16.0934 0 0
2:55 pm 14:55 Cloudy 37 2.7 20 -6.6 51 51 N 18 30 30.18 1022 10 16.0934 0 0
3:15 pm 15:15 Cloudy 37 3 20 -6.7 49 49 NNW 20 31 30.18 1022 10 16.0934 0 0
3:35 pm 15:35 Cloudy 38 3.1 20 -6.9 48 48 N 21 33 30.18 1022 10 16.0934 0 0
3:55 pm 15:55 Cloudy 37 2.9 19 -7.2 48 48 N 18 30 30.18 1022 10 16.0934 0 0
4:15 pm 16:15 Cloudy 37 2.7 18 -7.6 47 47 N 20 31 30.18 1022 10 16.0934 0 0
4:35 pm 16:35 Cloudy 37 2.6 18 -7.6 47 47 N 16 26 30.18 1022 10 16.0934 0 0
4:55 pm 16:55 Cloudy 37 2.5 18 -7.8 47 47 N 18 30 30.18 1022 10 16.0934 0 0
5:15 pm 17:15 Cloudy 36 2 17 -8.1 48 48 N 18 30 30.18 1022 10 16.0934 0 0
5:35 pm 17:35 Cloudy 35 1.8 17 -8.4 47 47 N 17 28 30.18 1022 10 16.0934 0 0
5:55 pm 17:55 Cloudy 34 1.3 17 -8.5 48 48 N 17 28 30.21 1023 10 16.0934 0 0
6:15 pm 18:15 Cloudy 33 0.8 15 -9.2 48 48 N 15 24 30.21 1023 10 16.0934 0 0
6:35 pm 18:35 Cloudy 33 0.6 16 -8.9 49 49 N 15 24 30.24 1024 10 16.0934 0 0
6:55 pm 18:55 Cloudy 33 0.5 16 -9 49 49 N 15 24 30.24 1024 10 16.0934 0 0
7:15 pm 19:15 Cloudy 32 0.1 16 -8.7 52 52 N 16 26 30.27 1025 10 16.0934 0 0
7:35 pm 19:35 Cloudy 32 0 16 -9.1 51 51 N 15 24 30.27 1025 10 16.0934 0 0
7:55 pm 19:55 Cloudy 32 0 15 -9.4 50 50 N 13 20 30.27 1025 10 16.0934 0 0
8:15 pm 20:15 Cloudy 31 -0.3 15 -9.6 50 50 N 15 24 30.27 1025 10 16.0934 0 0
8:35 pm 20:35 Cloudy 31 -0.5 15 -9.5 51 51 N 17 28 30.3 1026 10 16.0934 0 0
8:55 pm 20:55 Cloudy 31 -0.8 15 -9.2 53 53 N 14 22 30.33 1027 10 16.0934 0 0
9:15 pm 21:15 Cloudy 30 -1 15 -9.2 54 54 N 13 20 30.33 1027 10 16.0934 0 0
9:35 pm 21:35 Cloudy 30 -1.1 16 -9.1 55 55 N 12 19 30.33 1027 10 16.0934 0 0
9:55 pm 21:55 Cloudy 30 -1.2 16 -9.1 55 55 N 10 17 30.36 1028 10 16.0934 0 0
10:15 pm 22:15 Cloudy 29 -1.5 16 -9.1 57 57 N 7 11 30.36 1028 10 16.0934 0 0
10:35 pm 22:35 Cloudy 29 -1.5 15 -9.2 56 56 N 10 17 30.36 1028 10 16.0934 0 0
10:55 pm 22:55 Cloudy 29 -1.5 16 -9.1 57 57 N 9 15 30.36 1028 10 16.0934 0 0
11:15 pm 23:15 Cloudy 29 -1.5 16 -9 57 57 N 8 13 30.36 1028 10 16.0934 0 0
11:35 pm 23:35 Cloudy 29 -1.6 16 -9 57 57 NNW 9 15 30.36 1028 10 16.0934 0 0
11:55 pm 23:55 Cloudy 29 -1.7 16 -9 58 58 N 12 19 30.36 1028 10 16.0934 0 0

Powered by AerisWeather